导读 | 星芒AI

3CAT-4 是由西班牙加泰罗尼亚三一卫星协会(3CAT)开发的一颗立方体卫星(CubeSat),主要用于教育和科研目的。该卫星重约1.5公斤,搭载了多种有效载荷,包括用于通信测试的UHF和VHF频段转发器,以及用于地球观测的摄像头。3CAT-4 于2022年发射,旨在验证新技术、促进学生参与航天工程,并加强国际合作。该项目展示了小型卫星在低成本空间任务中的潜力。

基本信息
目录编号:
60236
目录名称:
3CAT-4
国际标识:
2024-128B
轨道中心:
EARTH
卫星名称:
3CAT-4 遥感卫星
卫星全名:
卫星状态:
在轨 (已飞行524 天)
发射日期:
2024-07-09 UTC
国别 :
西班牙 (ES)
星等 :
--
轨道信息
数据来源 国际轨道数据
星历时间: 2025-12-15T06:25:22+0800
19小时前
查看轨道信息
半长轴: 6941.112km
偏心率: 0.00582
轨道倾角: 61.991°
近地点辐角 98.061°
升交点赤经 147.268°
平近点角 262.708°
近地点: 522.579km
远地点: 603.375km
周期: 95.919分钟
每日圈数: 15.012716
详细信息
使用方式:
暂无
2D轨道图
3D轨道图
轨道高度分析图
轨道倾角分析图
轨道综合分析图
查看轨道综合分析图